International Skating Union - Official Site

Essent ISU World Cup Heerenveen
March 12-14, 2010

Draw | Lap Times | Index | World Cup

Referee: Knut  LUDAHL  (NOR)
Starter: Jannie  SMEGEN  (NED)
StartTime: EndTime: Air Temp: Ice Temp: Humidity:
16:34
Result 3000m Ladies Division A
Rankings as of Mar 21 2010 6:26PM
Rank: No.: Name: Nation: Time: Behind: Points:
1 8 Martina  SÁBLIKOVÁ CZE CZE 4:06.25200m - 20.58 - (20.5)
600m - 52.34 - (31.7)
1000m - 1:24.21 - (31.8)
1400m - 1:56.73 - (32.5)
1800m - 2:28.82 - (32.0)
2200m - 3:01.26 - (32.4)
2600m - 3:34.19 - (32.9)
3000m - 4:06.25 - (32.0)
150
2 11 Daniela  ANSCHÜTZ THOMS GER GER 4:06.54200m - 20.18 - (20.1)
600m - 51.59 - (31.4)
1000m - 1:23.50 - (31.9)
1400m - 1:55.62 - (32.1)
1800m - 2:27.85 - (32.2)
2200m - 3:00.83 - (32.9)
2600m - 3:33.49 - (32.6)
3000m - 4:06.54 - (33.0)
0.29 120
3 12 Stephanie  BECKERT GER GER 4:07.57200m - 20.70 - (20.7)
600m - 52.24 - (31.5)
1000m - 1:24.40 - (32.1)
1400m - 1:56.85 - (32.4)
1800m - 2:29.21 - (32.3)
2200m - 3:02.00 - (32.7)
2600m - 3:35.46 - (33.4)
3000m - 4:07.57 - (32.1)
1.32 105
4 1 Kristina  GROVES CAN CAN 4:08.17200m - 20.32 - (20.3)
600m - 51.62 - (31.3)
1000m - 1:23.58 - (31.9)
1400m - 1:55.80 - (32.2)
1800m - 2:28.33 - (32.5)
2200m - 3:01.19 - (32.8)
2600m - 3:34.27 - (33.0)
3000m - 4:08.17 - (33.9)
1.92 90
5 28 Renate  GROENEWOLD NED NED 4:09.74200m - 20.50 - (20.5)
600m - 51.78 - (31.2)
1000m - 1:23.43 - (31.6)
1400m - 1:55.65 - (32.2)
1800m - 2:28.56 - (32.9)
2200m - 3:01.72 - (33.1)
2600m - 3:35.58 - (33.8)
3000m - 4:09.74 - (34.1)
3.49 75
6 32 Diane  VALKENBURG NED NED 4:10.15200m - 19.83 - (19.8)
600m - 51.06 - (31.2)
1000m - 1:23.52 - (32.4)
1400m - 1:56.23 - (32.7)
1800m - 2:29.09 - (32.8)
2200m - 3:02.28 - (33.1)
2600m - 3:35.84 - (33.5)
3000m - 4:10.15 - (34.3)
3.90 45
7 35 Maren  HAUGLI NOR NOR 4:11.00200m - 20.71 - (20.7)
600m - 52.24 - (31.5)
1000m - 1:24.26 - (32.0)
1400m - 1:56.69 - (32.4)
1800m - 2:29.81 - (33.1)
2200m - 3:03.11 - (33.3)
2600m - 3:36.74 - (33.6)
3000m - 4:11.00 - (34.2)
4.75 40
8 17 Masako  HOZUMI JPN JPN 4:12.38200m - 20.45 - (20.4)
600m - 51.94 - (31.4)
1000m - 1:24.08 - (32.1)
1400m - 1:57.02 - (32.9)
1800m - 2:30.23 - (33.2)
2200m - 3:03.86 - (33.6)
2600m - 3:37.97 - (34.1)
3000m - 4:12.38 - (34.4)
6.13 36
9 48 Jilleanne  ROOKARD USA USA 4:13.14200m - 20.28 - (20.2)
600m - 51.62 - (31.3)
1000m - 1:24.13 - (32.5)
1400m - 1:57.22 - (33.1)
1800m - 2:31.13 - (33.9)
2200m - 3:04.97 - (33.8)
2600m - 3:38.95 - (33.9)
3000m - 4:13.14 - (34.1)
6.89 32
10 5 Brittany  SCHUSSLER CAN CAN 4:13.51200m - 20.00 - (20.0)
600m - 50.82 - (30.8)
1000m - 1:22.63 - (31.8)
1400m - 1:55.55 - (32.9)
1800m - 2:29.24 - (33.6)
2200m - 3:03.42 - (34.1)
2600m - 3:38.10 - (34.6)
3000m - 4:13.51 - (35.4)
7.26 28
11 15 Katrin  MATTSCHERODT GER GER 4:13.85200m - 20.89 - (20.9)
600m - 52.86 - (31.9)
1000m - 1:25.25 - (32.3)
1400m - 1:58.25 - (33.0)
1800m - 2:31.65 - (33.4)
2200m - 3:05.71 - (34.0)
2600m - 3:39.84 - (34.1)
3000m - 4:13.85 - (34.0)
7.60 24
12 49 Nancy  SWIDER-PELTZ Jr. USA USA 4:14.07200m - 20.65 - (20.6)
600m - 51.68 - (31.0)
1000m - 1:23.08 - (31.4)
1400m - 1:55.69 - (32.6)
1800m - 2:28.91 - (33.2)
2200m - 3:02.98 - (34.0)
2600m - 3:38.09 - (35.1)
3000m - 4:14.07 - (35.9)
7.82 21
13 2 Cindy  KLASSEN CAN CAN 4:15.65200m - 20.36 - (20.3)
600m - 52.35 - (31.9)
1000m - 1:24.78 - (32.4)
1400m - 1:57.81 - (33.0)
1800m - 2:31.34 - (33.5)
2200m - 3:05.31 - (33.9)
2600m - 3:39.98 - (34.6)
3000m - 4:15.65 - (35.6)
9.40 18
14 33 Elma  de VRIES NED NED 4:15.96200m - 19.90 - (19.9)
600m - 52.06 - (32.1)
1000m - 1:24.53 - (32.4)
1400m - 1:57.54 - (33.0)
1800m - 2:31.06 - (33.5)
2200m - 3:04.89 - (33.8)
2600m - 3:39.77 - (34.8)
3000m - 4:15.96 - (36.1)
9.71 16
15 29 Moniek  KLEINSMAN NED NED 4:16.54200m - 20.29 - (20.3)
600m - 51.77 - (31.4)
1000m - 1:24.84 - (33.0)
1400m - 1:58.35 - (33.5)
1800m - 2:32.60 - (34.2)
2200m - 3:06.90 - (34.3)
2600m - 3:41.55 - (34.6)
3000m - 4:16.54 - (34.9)
10.29 14
16 20 Eri  NATORI JPN JPN 4:16.71200m - 20.94 - (20.9)
600m - 52.80 - (31.8)
1000m - 1:25.30 - (32.5)
1400m - 1:58.92 - (33.6)
1800m - 2:33.23 - (34.3)
2200m - 3:07.69 - (34.4)
2600m - 3:42.30 - (34.6)
3000m - 4:16.71 - (34.4)
10.46 12
17 18 Shiho  ISHIZAWA JPN JPN 4:19.50200m - 20.83 - (20.8)
600m - 53.18 - (32.3)
1000m - 1:26.28 - (33.1)
1400m - 2:00.12 - (33.8)
1800m - 2:34.63 - (34.5)
2200m - 3:09.47 - (34.8)
2600m - 3:44.51 - (35.0)
3000m - 4:19.50 - (35.0)
13.25 10
18 9 Cathrine  GRAGE DEN DEN 4:21.17200m - 21.47 - (21.4)
600m - 54.12 - (32.6)
1000m - 1:27.58 - (33.4)
1400m - 2:01.81 - (34.2)
1800m - 2:36.15 - (34.3)
2200m - 3:10.83 - (34.6)
2600m - 3:45.79 - (34.9)
3000m - 4:21.17 - (35.3)
14.92 8